Stations météo

réclame
Mon MeteoGroup
Capo Frasca, Italie (16539): Température de l'air & dewpoint: 14.10.2018 19:00:00 - 20.10.2018 19:00:00 (CEST)Capo Frasca, Italie (16539): Vitesse du vent: 14.10.2018 19:00:00 - 20.10.2018 19:00:00 (CEST)Capo Frasca, Italie (16539): Direction du vent: 14.10.2018 19:00:00 - 20.10.2018 19:00:00 (CEST)Capo Frasca, Italie (16539): reduced air pressure: 14.10.2018 19:00:00 - 20.10.2018 19:00:00 (CEST)Capo Frasca, Italie (16539): visibility: 14.10.2018 19:00:00 - 20.10.2018 19:00:00 (CEST)
Date & Time tt [°C] td [°C] ff [km/h] ff [knt] dd ppp [hPa] vv [km]
20.10.2018 19:00:00 - - - - - - -
20.10.2018 18:00:00 - - - - - - -
20.10.2018 17:00:00 23,0 23,0 13 7 NW 1020,0 20
20.10.2018 16:00:00 - - - - - - -
20.10.2018 15:00:00 - - - - - - -
20.10.2018 14:00:00 23,2 21,3 8 4 NE 1020,6 20
20.10.2018 13:00:00 - - - - - - -
20.10.2018 12:00:00 - - - - - - -
20.10.2018 11:00:00 21,2 19,9 11 6 ESE 1020,6 20
20.10.2018 10:00:00 - - - - - - -
20.10.2018 09:00:00 - - - - - - -
20.10.2018 08:00:00 17,0 16,5 11 6 ESE 1018,5 20
20.10.2018 07:00:00 - - - - - - -
20.10.2018 06:00:00 - - - - - - -
20.10.2018 05:00:00 - - - - - - -
20.10.2018 04:00:00 - - - - - - -
20.10.2018 03:00:00 - - - - - - -
20.10.2018 02:00:00 - - - - - - -
20.10.2018 01:00:00 - - - - - - -
20.10.2018 00:00:00 - - - - - - -
19.10.2018 23:00:00 - - - - - - -
19.10.2018 22:00:00 - - - - - - -
19.10.2018 21:00:00 - - - - - - -
19.10.2018 20:00:00 21,8 21,8 9 5 W 1015,6 25
19.10.2018 19:00:00 - - - - - - -
19.10.2018 18:00:00 - - - - - - -
19.10.2018 17:00:00 23,4 23,4 16 9 W 1014,3 25
19.10.2018 16:00:00 - - - - - - -
19.10.2018 15:00:00 - - - - - - -
19.10.2018 14:00:00 26,8 23,9 21 11 SE 1013,7 25
19.10.2018 13:00:00 - - - - - - -
19.10.2018 12:00:00 - - - - - - -
19.10.2018 11:00:00 23,6 21,7 22 12 ESE 1013,3 25
19.10.2018 10:00:00 - - - - - - -
19.10.2018 09:00:00 - - - - - - -
19.10.2018 08:00:00 17,2 16,9 15 8 E 1011,2 20
19.10.2018 07:00:00 - - - - - - -
19.10.2018 06:00:00 - - - - - - -
19.10.2018 05:00:00 - - - - - - -
19.10.2018 04:00:00 - - - - - - -
19.10.2018 03:00:00 - - - - - - -
19.10.2018 02:00:00 - - - - - - -
19.10.2018 01:00:00 - - - - - - -
19.10.2018 00:00:00 - - - - - - -
18.10.2018 23:00:00 - - - - - - -
18.10.2018 22:00:00 - - - - - - -
18.10.2018 21:00:00 - - - - - - -
18.10.2018 20:00:00 20,2 19,7 15 8 SE 1007,1 25
18.10.2018 19:00:00 - - - - - - -
18.10.2018 18:00:00 - - - - - - -
18.10.2018 17:00:00 23,8 20,1 35 19 E 1005,9 20
18.10.2018 16:00:00 - - - - - - -
18.10.2018 15:00:00 - - - - - - -
18.10.2018 14:00:00 23,0 22,2 22 12 ESE 1007,1 20
18.10.2018 13:00:00 - - - - - - -
18.10.2018 12:00:00 - - - - - - -
18.10.2018 11:00:00 20,8 20,1 15 8 ENE 1007,8 20
18.10.2018 10:00:00 - - - - - - -
18.10.2018 09:00:00 - - - - - - -
18.10.2018 08:00:00 18,0 17,2 18 10 ESE 1007,6 20
18.10.2018 07:00:00 - - - - - - -
18.10.2018 06:00:00 - - - - - - -
18.10.2018 05:00:00 - - - - - - -
18.10.2018 04:00:00 - - - - - - -
18.10.2018 03:00:00 - - - - - - -
18.10.2018 02:00:00 - - - - - - -
18.10.2018 01:00:00 - - - - - - -
18.10.2018 00:00:00 - - - - - - -
17.10.2018 23:00:00 - - - - - - -
17.10.2018 22:00:00 - - - - - - -
17.10.2018 21:00:00 - - - - - - -
17.10.2018 20:00:00 17,8 17,3 21 11 E 1010,5 20
17.10.2018 19:00:00 - - - - - - -
17.10.2018 18:00:00 - - - - - - -
17.10.2018 17:00:00 18,2 17,5 26 14 E 1011,0 20
17.10.2018 16:00:00 - - - - - - -
17.10.2018 15:00:00 - - - - - - -
17.10.2018 14:00:00 22,2 21,5 21 11 ESE 1012,0 25
17.10.2018 13:00:00 - - - - - - -
17.10.2018 12:00:00 - - - - - - -
17.10.2018 11:00:00 20,8 20,1 18 10 ESE 1013,2 25
17.10.2018 10:00:00 - - - - - - -
17.10.2018 09:00:00 - - - - - - -
17.10.2018 08:00:00 17,4 16,9 11 6 SE 1012,5 25
17.10.2018 07:00:00 - - - - - - -
17.10.2018 06:00:00 - - - - - - -
17.10.2018 05:00:00 - - - - - - -
17.10.2018 04:00:00 - - - - - - -
17.10.2018 03:00:00 - - - - - - -
17.10.2018 02:00:00 - - - - - - -
17.10.2018 01:00:00 - - - - - - -
17.10.2018 00:00:00 - - - - - - -
16.10.2018 23:00:00 - - - - - - -
16.10.2018 22:00:00 - - - - - - -
16.10.2018 21:00:00 - - - - - - -
16.10.2018 20:00:00 20,4 20,4 5 3 NNW 1014,5 20
16.10.2018 19:00:00 - - - - - - -
16.10.2018 18:00:00 - - - - - - -
16.10.2018 17:00:00 22,8 20,7 15 8 WNW 1013,8 20
16.10.2018 16:00:00 - - - - - - -
16.10.2018 15:00:00 - - - - - - -
16.10.2018 14:00:00 23,6 21,3 4 2 WSW 1014,0 25
16.10.2018 13:00:00 - - - - - - -
16.10.2018 12:00:00 - - - - - - -
16.10.2018 11:00:00 19,6 19,0 11 6 ENE 1014,3 20
16.10.2018 10:00:00 - - - - - - -
16.10.2018 09:00:00 - - - - - - -
16.10.2018 08:00:00 17,4 16,8 13 7 ESE 1013,3 20
16.10.2018 07:00:00 - - - - - - -
16.10.2018 06:00:00 - - - - - - -
16.10.2018 05:00:00 - - - - - - -
16.10.2018 04:00:00 - - - - - - -
16.10.2018 03:00:00 - - - - - - -
16.10.2018 02:00:00 - - - - - - -
16.10.2018 01:00:00 - - - - - - -
16.10.2018 00:00:00 - - - - - - -
15.10.2018 23:00:00 - - - - - - -
15.10.2018 22:00:00 - - - - - - -
15.10.2018 21:00:00 - - - - - - -
15.10.2018 20:00:00 18,6 18,6 9 5 SE 1012,9 15
15.10.2018 19:00:00 - - - - - - -
15.10.2018 18:00:00 - - - - - - -
15.10.2018 17:00:00 21,4 21,4 13 7 S 1012,2 10
15.10.2018 16:00:00 - - - - - - -
15.10.2018 15:00:00 - - - - - - -
15.10.2018 14:00:00 23,4 21,1 31 17 ESE 1011,4 20
15.10.2018 13:00:00 - - - - - - -
15.10.2018 12:00:00 - - - - - - -
15.10.2018 11:00:00 21,4 19,9 41 22 ESE 1012,3 20
15.10.2018 10:00:00 - - - - - - -
15.10.2018 09:00:00 - - - - - - -
15.10.2018 08:00:00 17,8 17,8 35 19 ESE 1011,4 20
15.10.2018 07:00:00 - - - - - - -
15.10.2018 06:00:00 - - - - - - -
15.10.2018 05:00:00 - - - - - - -
15.10.2018 04:00:00 - - - - - - -
15.10.2018 03:00:00 - - - - - - -
15.10.2018 02:00:00 - - - - - - -
15.10.2018 01:00:00 - - - - - - -
15.10.2018 00:00:00 - - - - - - -
14.10.2018 23:00:00 - - - - - - -
14.10.2018 22:00:00 - - - - - - -
14.10.2018 21:00:00 - - - - - - -
14.10.2018 20:00:00 21,0 21,0 18 10 ESE 1013,1 20
14.10.2018 19:00:00 - - - - - - -

tt = Température de l'air
td = dewpoint
ff = Vitesse du vent
dd = Direction du vent
ppp = reduced air pressure
vv = visibility

stations d'obs. à proximité